Weather History for Rush City, MN

Change the Weather History Date:

Thursday, November 24, 2011

  Actual Average (KCBG) Record (KCBG)
Temperature  
Mean Temperature 44 °F -  
Max Temperature 54 °F 33 °F 55 °F (2006)
Min Temperature 34 °F 15 °F -12 °F (1985)
Degree Days  
Heating Degree Days 21    
Moisture  
Dew Point 36 °F    
Average Humidity 81    
Maximum Humidity 94    
Minimum Humidity 57    
Precipitation  
Precipitation 0.00 in - - ()
Sea Level Pressure  
Sea Level Pressure 29.82 in    
Wind  
Wind Speed 8 mph (South)    
Max Wind Speed 16 mph    
Max Gust Speed 22 mph    
Visibility 10 miles    
Events      
Averages and records for this station are not official NWS values.
T = Trace of Precipitation, MM = Missing Value Source: NWS Daily Summary

Daily Weather History Graph

Daily Weather History Graph

Search for Another Location

Airport:

Trip Planner

Search our weather history database for the weather conditions in past years. The results will help you decide how hot, cold, wet, or windy it might be!

Date:

Astronomy

Nov. 24, 2011 Rise Set
Actual Time 7:23 AM CST 4:33 PM CST
Civil Twilight 6:50 AM CST 5:06 PM CST
Nautical Twilight 6:13 AM CST 5:43 PM CST
Astronomical Twilight 5:38 AM CST 6:18 PM CST
Moon 6:42 AM CST (11/24) 4:02 PM CST (11/24)
Length of Visible Light 10h 16m
Length of Day
9h 10m
Waning Crescent, 0% of the Moon is Illuminated
Nov 24
Waning Crescent
Nov 25
New
Dec 2
First Quarter
Dec 10
Full
Dec 17
Last Quarter

Hourly Weather History & Observations

Time (CST) Temp. Windchill Dew Point Humidity Pressure Visibility Wind Dir Wind Speed Gust Speed Precip Events Conditions
12:15 AM 35.8 °F 30.9 °F 33.4 °F 91% 29.96 in 10.0 mi South 5.8 mph - N/A   Clear
12:34 AM 35.4 °F 30.5 °F 33.3 °F 92% 29.96 in 10.0 mi South 5.8 mph - N/A   Clear
12:54 AM 35.1 °F 30.1 °F 32.9 °F 92% 29.95 in 10.0 mi SSE 5.8 mph - N/A   Clear
1:13 AM 35.4 °F 29.7 °F 33.1 °F 91% 29.94 in 10.0 mi South 6.9 mph - N/A   Clear
1:34 AM 35.6 °F 29.2 °F 33.3 °F 91% 29.94 in 10.0 mi South 8.1 mph - N/A   Clear
1:54 AM 35.8 °F 29.4 °F 33.3 °F 91% 29.94 in 10.0 mi South 8.1 mph - N/A   Clear
2:14 AM 35.6 °F 29.2 °F 33.1 °F 91% 29.94 in 10.0 mi South 8.1 mph - N/A   Clear
2:34 AM 34.9 °F 28.3 °F 32.5 °F 91% 29.93 in 10.0 mi South 8.1 mph - N/A   Clear
2:54 AM 34.7 °F 28.1 °F 32.5 °F 92% 29.93 in 10.0 mi SSE 8.1 mph - N/A   Clear
3:14 AM 34.7 °F 28.1 °F 32.9 °F 93% 29.92 in 10.0 mi SSE 8.1 mph - N/A   Clear
3:34 AM 34.5 °F 27.3 °F 32.7 °F 93% 29.91 in 7.0 mi SSE 9.2 mph - N/A   Clear
3:54 AM 34.3 °F 27.0 °F 32.5 °F 93% 29.90 in 7.0 mi SSE 9.2 mph - N/A   Clear
4:14 AM 34.2 °F 27.5 °F 32.7 °F 94% 29.90 in 7.0 mi SSE 8.1 mph - N/A   Clear
4:35 AM 34.3 °F 26.5 °F 32.9 °F 94% 29.88 in 7.0 mi SSE 10.4 mph - N/A   Clear
4:54 AM 34.7 °F 27.5 °F 32.9 °F 93% 29.89 in 10.0 mi South 9.2 mph - N/A   Clear
5:14 AM 34.7 °F 27.5 °F 32.9 °F 93% 29.89 in 10.0 mi SSE 9.2 mph - N/A   Clear
5:35 AM 34.7 °F 27.5 °F 32.9 °F 93% 29.88 in 10.0 mi SSE 9.2 mph - N/A   Clear
5:54 AM 34.7 °F 26.9 °F 32.9 °F 93% 29.87 in 10.0 mi SSE 10.4 mph - N/A   Clear
6:14 AM 34.7 °F 28.1 °F 32.9 °F 93% 29.87 in 10.0 mi SSE 8.1 mph - N/A   Clear
6:34 AM 35.2 °F 28.1 °F 33.3 °F 92% 29.87 in 10.0 mi SSE 9.2 mph - N/A   Clear
6:54 AM 35.2 °F 28.1 °F 33.1 °F 92% 29.86 in 10.0 mi SSE 9.2 mph - N/A   Clear
7:34 AM 35.8 °F 28.8 °F 33.3 °F 91% 29.86 in 10.0 mi SSE 9.2 mph - N/A   Clear
7:54 AM 36.0 °F 28.5 °F 33.8 °F 92% 29.86 in 10.0 mi South 10.4 mph - N/A   Clear
8:14 AM 36.7 °F 29.9 °F 34.0 °F 90% 29.86 in 10.0 mi South 9.2 mph - N/A   Clear
8:34 AM 37.8 °F 31.8 °F 34.5 °F 88% 29.85 in 10.0 mi South 8.1 mph - N/A   Clear
8:54 AM 39.2 °F 33.0 °F 35.6 °F 87% 29.84 in 10.0 mi South 9.2 mph - N/A   Clear
9:14 AM 40.1 °F 34.1 °F 36.0 °F 85% 29.84 in 10.0 mi South 9.2 mph - N/A   Clear
9:34 AM 41.9 °F 35.0 °F 36.3 °F 81% 29.84 in 10.0 mi South 12.7 mph 17.3 mph N/A   Clear
9:54 AM 43.3 °F 37.2 °F 37.2 °F 79% 29.83 in 10.0 mi South 11.5 mph 16.1 mph N/A   Clear
10:14 AM 44.1 °F 38.1 °F 37.0 °F 76% 29.82 in 10.0 mi South 11.5 mph 18.4 mph N/A   Clear
10:34 AM 46.4 °F 41.5 °F 37.4 °F 71% 29.83 in 10.0 mi South 10.4 mph 17.3 mph N/A   Clear
10:54 AM 47.1 °F - 37.4 °F 69% 29.81 in 10.0 mi South 16.1 mph 21.9 mph N/A   Clear
11:14 AM 48.0 °F - 37.6 °F 67% 29.80 in 10.0 mi South 11.5 mph 19.6 mph N/A   Clear
11:34 AM 48.4 °F - 37.4 °F 66% 29.80 in 10.0 mi South 10.4 mph - N/A   Clear
11:55 AM 49.5 °F - 37.9 °F 65% 29.79 in 10.0 mi South 10.4 mph 17.3 mph N/A   Clear
12:14 PM 49.3 °F - 38.1 °F 65% 29.78 in 10.0 mi South 10.4 mph - N/A   Clear
12:34 PM 49.6 °F - 38.3 °F 65% 29.77 in 10.0 mi South 9.2 mph - N/A   Clear
12:54 PM 50.9 °F - 38.3 °F 62% 29.76 in 10.0 mi South 10.4 mph - N/A   Clear
1:14 PM 52.0 °F - 39.0 °F 61% 29.76 in 10.0 mi South 8.1 mph - N/A   Clear
1:34 PM 52.5 °F - 39.4 °F 61% 29.76 in 10.0 mi South 6.9 mph - N/A   Clear
2:14 PM 54.1 °F - 39.4 °F 57% 29.74 in 10.0 mi South 9.2 mph - N/A   Clear
2:34 PM 53.4 °F - 39.2 °F 59% 29.74 in 10.0 mi South 9.2 mph - N/A   Clear
3:14 PM 54.5 °F - 40.1 °F 58% 29.74 in 10.0 mi South 11.5 mph - N/A   Clear
3:34 PM 53.6 °F - 40.1 °F 60% 29.74 in 10.0 mi South 11.5 mph - N/A   Clear
3:54 PM 52.7 °F - 40.1 °F 62% 29.74 in 10.0 mi South 6.9 mph - N/A   Clear
4:14 PM 51.4 °F - 40.1 °F 65% 29.74 in 10.0 mi South 5.8 mph - N/A   Clear
4:34 PM 48.2 °F - 39.4 °F 72% 29.74 in 10.0 mi SSE 4.6 mph - N/A   Clear
4:54 PM 46.6 °F - 39.0 °F 75% 29.74 in 10.0 mi SSE 4.6 mph - N/A   Scattered Clouds
5:15 PM 45.7 °F 43.4 °F 38.7 °F 76% 29.74 in 10.0 mi SSE 4.6 mph - N/A   Scattered Clouds
5:34 PM 45.5 °F 42.5 °F 38.7 °F 77% 29.73 in 10.0 mi SSE 5.8 mph - N/A   Mostly Cloudy
5:54 PM 45.5 °F 41.8 °F 39.2 °F 79% 29.72 in 10.0 mi South 6.9 mph - N/A   Scattered Clouds
6:14 PM 45.5 °F 41.3 °F 39.4 °F 79% 29.71 in 10.0 mi SSE 8.1 mph - N/A   Mostly Cloudy
6:54 PM 45.9 °F 41.7 °F 40.1 °F 80% 29.70 in 10.0 mi SSE 8.1 mph - N/A   Mostly Cloudy
7:14 PM 45.5 °F 41.8 °F 39.9 °F 81% 29.70 in 10.0 mi SSE 6.9 mph - N/A   Mostly Cloudy
7:34 PM 44.6 °F 40.7 °F 39.4 °F 82% 29.70 in 10.0 mi SSE 6.9 mph - N/A   Mostly Cloudy
7:55 PM 44.2 °F 39.7 °F 39.4 °F 83% 29.69 in 10.0 mi SSE 8.1 mph - N/A   Mostly Cloudy
8:14 PM 44.2 °F 41.8 °F 39.2 °F 82% 29.70 in 10.0 mi South 4.6 mph - N/A   Scattered Clouds
8:34 PM 43.0 °F 38.8 °F 38.3 °F 84% 29.69 in 10.0 mi SSE 6.9 mph - N/A   Scattered Clouds
8:54 PM 43.2 °F 38.4 °F 38.8 °F 85% 29.68 in 10.0 mi SSE 8.1 mph - N/A   Scattered Clouds
9:14 PM 43.7 °F 39.7 °F 39.2 °F 84% 29.68 in 10.0 mi SSE 6.9 mph - N/A   Scattered Clouds
9:34 PM 43.0 °F 39.5 °F 38.5 °F 84% 29.67 in 10.0 mi SSE 5.8 mph - N/A   Scattered Clouds
9:54 PM 43.5 °F 39.4 °F 39.0 °F 84% 29.67 in 10.0 mi SSE 6.9 mph - N/A   Scattered Clouds
10:14 PM 42.8 °F 38.6 °F 38.5 °F 85% 29.67 in 10.0 mi SSE 6.9 mph - N/A   Scattered Clouds
10:34 PM 43.2 °F 39.7 °F 38.5 °F 84% 29.66 in 10.0 mi SSE 5.8 mph - N/A   Scattered Clouds
11:34 PM 40.1 °F - 37.4 °F 90% 29.67 in 10.0 mi Calm Calm - N/A   Scattered Clouds
11:54 PM 40.5 °F 38.4 °F 37.6 °F 89% 29.67 in 10.0 mi South 3.5 mph - N/A   Clear